Location: Tafessasset
(32.5899°N, 5.4824°W)
Time: 08:35:57
(UTC+00:00)

Cosmos 2084 - Pass Details

Date: 18 February 2020
Orbit: 568 x 614 km, 62.8° (Epoch: 09 April)

Event Time Altitude Azimuth Distance (km) Brightness Sun altitude
Exits shadow 05:24:41 13° 195° (SSW) 1,791 5.8 -21.3°
Maximum altitude 05:28:37 58° 118° (ESE) 713 4.1 -20.4°
Drops below altitude 10° 05:33:00 10° 39° (NE) 1,973 6.6 -19.5°
Sets 05:35:18 0° 36° (NE) 2,880 7.5 -19.0°
